Flag for Germany Weather past 2 weeks in Friedrichshafen, Baden-Württemberg, Germany

Now
70 °F

Mild.


Feels Like: 70 °F
Forecast: 70 / 85 °F
Wind: 6 mph from Northeast

Location: Friedrichshafen Airport

Current Time: Jul 5, 2015 at 4:50:17 AM

Latest Report: Jul 5, 2015 at 3:50 AM


Visibility: N/A

Pressure: 30.12 "Hg

Humidity: 78%

Dew point: 63 °F

Location of FriedrichshafenLocation

Historic Weather in Friedrichshafen — Graph

°F

Friedrichshafen temperature yesterday

Maximum temperature yesterday: 95 °F (at 5:20 PM)
Minimum temperature yesterday: 64 °F (at 5:20 AM)
Average temperature yesterday: 79 °F

Past Weeks' High & Low Weather Summary

 TemperatureHumidityPressure
High95 °F (Jul 4, 5:20 PM)93% (Jun 24, 5:50 AM)30.30 "Hg (Jun 24, 5:50 AM)
Low45 °F (Jun 24, 4:50 AM)20% (Jul 4, 5:20 PM)29.74 "Hg (Jun 22, 9:50 PM)
Average67 °F61%30.13 "Hg
* Reported Jun 20 3:20 AM — Jul 5 3:50 AM, Friedrichshafen, Weather by CustomWeather, © 2015

Note: Actual official high and low records may vary slightly from our data, if they occured in-between our weather recording intervals... More about our weather records

Advertising

Friedrichshafen weather history for previous 24 hours

 ConditionsComfort  
Time TempWeatherWind HumidityBarometerVisibility
3:50 AM
Sun, Jul 5
70 °FMild.6 mph78%30.12 "HgN/A
3:20 AM68 °FMild.6 mph83%30.12 "HgN/A
2:50 AM70 °FMild.6 mph78%30.12 "HgN/A
2:20 AM70 °FMild.6 mph78%30.15 "HgN/A
1:50 AM72 °FMild.5 mph78%30.15 "HgN/A
1:20 AM72 °FMild.5 mph73%30.15 "HgN/A
12:50 AM73 °FMild.5 mph74%30.15 "HgN/A
12:20 AM73 °FMild.6 mph74%30.15 "HgN/A
11:50 PM
Sat, Jul 4
73 °FMild.8 mph74%30.15 "HgN/A
11:20 PM77 °FWarm.2 mph65%30.15 "HgN/A
10:55 PM77 °FWarm.3 mph65%30.15 "HgN/A
10:20 PM79 °FSprinkles. Cloudy.3 mph58%30.15 "HgN/A
9:50 PM77 °FSunny.3 mph65%30.15 "Hg10 mi
9:20 PM81 °FSunny.3 mph58%30.15 "Hg10 mi
8:50 PM84 °FSunny.5 mph48%30.15 "Hg10 mi
8:20 PM86 °FSunny.6 mph43%30.15 "Hg10 mi
7:50 PM88 °FSunny.5 mph43%30.15 "Hg10 mi
7:20 PM90 °FSunny.3 mph43%30.15 "Hg10 mi
6:50 PM86 °FSunny.3 mph49%30.15 "Hg10 mi
6:20 PM91 °FSunny.5 mph23%30.15 "Hg10 mi
5:50 PM93 °FPassing clouds.7 mph21%30.15 "HgN/A
5:20 PM95 °FPassing clouds.7 mph20%30.15 "HgN/A
4:50 PM93 °FSunny.8 mph24%30.15 "Hg10 mi
4:20 PM93 °FPassing clouds.8 mph24%30.15 "HgN/A
3:50 PM91 °FPassing clouds.7 mph28%30.18 "HgN/A
3:20 PM91 °FPassing clouds.8 mph30%30.18 "HgN/A
2:50 PM91 °FSunny.7 mph28%30.18 "Hg10 mi
2:20 PM91 °FPassing clouds.9 mph30%30.18 "HgN/A
1:50 PM90 °FSunny.7 mph33%30.21 "Hg10 mi
1:20 PM90 °FSunny.5 mph33%30.21 "Hg10 mi
12:50 PM86 °FSunny.5 mph43%30.21 "Hg10 mi
12:20 PM86 °FSunny.5 mph40%30.21 "Hg10 mi
11:50 AM84 °FSunny.3 mph45%30.21 "Hg10 mi
11:20 AM84 °FPassing clouds.5 mph48%30.21 "HgN/A
10:50 AM82 °FPassing clouds.5 mph55%30.21 "HgN/A
10:20 AM82 °FPassing clouds.5 mph55%30.24 "HgN/A
9:50 AM81 °FSunny.2 mph51%30.24 "Hg10 mi
9:20 AM79 °FSunny.3 mph54%30.21 "Hg10 mi
8:50 AM75 °FSunny.2 mph61%30.21 "Hg10 mi
8:20 AM73 °FSunny.2 mph65%30.21 "Hg10 mi
7:50 AM72 °FSunny.2 mph69%30.21 "Hg10 mi
7:20 AM70 °FSunny.1 mph73%30.21 "Hg10 mi
6:50 AM66 °FSunny.No wind78%30.21 "Hg10 mi
6:20 AM64 °FClear.No wind83%30.21 "Hg10 mi
5:50 AM64 °FClear.2 mph83%30.21 "Hg10 mi
5:20 AM64 °FMild.1 mph78%30.21 "HgN/A
5:01 AM66 °FMild.3 mph78%30.18 "HgN/A
4:55 AM66 °FMild.3 mph73%30.18 "HgN/A
4:20 AM68 °FMild.5 mph73%30.18 "HgN/A
Weather by CustomWeather, © 2015

See weather overviewHow to use our weather pages